Location: La Trinit�
(48.1620°N, 3.4512°W)
Time: 16:50:25
(UTC+00:00)

Cosmos 1707 Rocket - Pass Details

Date: 08 May 2021
Orbit: 605 x 631 km, 82.5° (Epoch: 23 June)

Event Time Altitude Azimuth Distance (km) Brightness Sun altitude
Exits shadow 23:20:00 71° 243° (WSW) 655 3.5 -23.5°
Maximum altitude 23:20:18 75° 280° (W) 643 3.6 -23.5°
Drops below altitude 10° 23:24:43 10° 6° (N) 1,996 7.1 -23.7°
Sets 23:26:59 0° 9° (N) 2,911 8.2 -23.8°
